Regional Weather Roundup
Issued by NWS

Home | Current Version | Previous Version | Text Only | Print | Product List | Glossary Off
Versions: 1 2 3 4 5 6 7 8 9 10 11 12 13 14 15 16 17 18 19 20 21 22 23 24 25 26 27 28 29 30 31 32 33 34 35 36 37 38 39 40 41 42 43 44 45 46 47 48 49 50

000
ASUS43 KTOP 252259
RWRKS

WEATHER ROUNDUP FOR KANSAS
NATIONAL WEATHER SERVICE GOODLAND KS
500 PM CST THU DEC 25 2014

NOTE:  "FAIR" INDICATES FEW OR NO CLOUDS BELOW 12,000 FEET WITH NO
SIGNIFICANT WEATHER AND/OR OBSTRUCTIONS TO VISIBILITY.

KSZ001>006-013>018-027>032-041>047-260000-
NORTHWEST KANSAS

CITY           SKY/WX    TMP DP  RH WIND       PRES   REMARKS
GOODLAND       PTCLDY    39  27  62 N15       29.55R WCI  31
HAYS           CLOUDY    52  25  35 SE3       29.50R
HILL CITY      PTCLDY    46  26  45 NW14      29.53R
RUSSELL        MOCLDY    51  29  42 S16G22    29.50R
$$

KSZ061>065-074>080-084>089-260000-
SOUTHWEST KANSAS

CITY           SKY/WX    TMP DP  RH WIND       PRES   REMARKS
DODGE CITY     CLOUDY    52  22  30 S14       29.52R
ELKHART          N/A     59  21  23 SW12        N/A
GARDEN CITY    CLOUDY    53  23  31 SW18G25   29.49R
GREAT BEND     CLOUDY    48  27  43 S17       29.54R
LIBERAL        CLOUDY    55  19  24 S18       29.56R
$$

KSZ066>073-081>083-090>101-260000-
SOUTHEAST KANSAS

CITY           SKY/WX    TMP DP  RH WIND       PRES   REMARKS
CHANUTE        CLOUDY    52  30  43 S21G29    29.72S
COFFEYVILLE    MOCLDY    54  29  38 S23G30    29.75S
HUTCHINSON     CLOUDY    52  28  39 S17       29.59S
NEWTON         CLOUDY    50  27  40 S26       29.62S
PARSONS        CLOUDY    54  30  40 S16G25    29.75S
WICHITA INTL   CLOUDY    53  28  38 S22G29    29.64R
WICHITA JABRA  CLOUDY    53  27  36 S23G37    29.64R
WINFIELD       CLOUDY    54  28  36 S16G26    29.70R
$$

KSZ007>012-019>026-033>040-048>060-102>105-260000-
NORTHEAST KANSAS

CITY           SKY/WX    TMP DP  RH WIND       PRES   REMARKS
CONCORDIA      MOCLDY    47  31  53 SE8       29.56R
EMPORIA        MOCLDY    51  28  41 S17       29.65R
LAWRENCE       CLOUDY    51  29  42 S21G28    29.69R
MANHATTAN      CLOUDY    53  29  39 S13G22    29.61R
OLATHE IND     CLOUDY    50  30  46 S21G30    29.70R
OLATHE EXE     CLOUDY    50  28  42 S22G32    29.70R
SALINA         MOCLDY    50  31  48 S12       29.57R
TOPEKA BILLARD CLOUDY    53  30  41 S15G22    29.67R
TOPEKA FORBES  CLOUDY    52  30  43 S17G25    29.65R
$$


USA.gov is the U.S. government's official web portal to all federal, state and local government web resources and services.